Flight Track Log - Related Links

Times and Time Zones

All times are in EDT time to prevent confusion due to time zone crossing. See the SWA1086 flight status page for this flight to view local times or setup timezone preferences in your user account.

Time Position Orientation Groundspeed Altitude Reporting Facility
EDT Latitude Longitude Course Direction KTS MPH feet Rate Location/Type
11:05 35.4103 -97.6250 346° North 145 167 2,200  Level Fort Worth Center
11:06 35.4353 -97.6328 346° North 196 226 2,800 2,901 Climbing Fort Worth Center
11:07 35.4978 -97.6228 North 249 287 6,600 3,669 Climbing Fort Worth Center
11:08 35.5728 -97.6075 North 274 315 10,200 3,050 Climbing Fort Worth Center
11:10 35.7453 -97.5664 11° North 328 377 15,800 2,736 Climbing Kansas City Center
11:11 35.8414 -97.5447 10° North 345 397 18,500 2,476 Climbing Kansas City Center
11:12 35.9414 -97.5222 10° North 358 412 21,000 2,160 Climbing Kansas City Center
11:13 36.0483 -97.4936 12° North 381 438 23,000 2,081 Climbing Kansas City Center
11:14 36.1594 -97.4394 21° North 418 481 25,300 2,304 Climbing Kansas City Center
11:15 36.2939 -97.3756 21° North 431 496 27,800 2,177 Climbing Kansas City Center
11:16 36.4075 -97.3225 21° North 434 499 29,800 1,561 Climbing Kansas City Center
11:17 36.5214 -97.2678 21° North 437 503 31,000 585 Climbing Kansas City Center
11:18 36.6406 -97.2125 20° North 450 518 31,000  Level Kansas City Center
11:19 36.7561 -97.1569 21° North 449 517 31,000  Level Kansas City Center
11:20 36.8744 -97.0789 28° Northeast 458 527 31,000  Level Kansas City Center
11:21 36.9903 -97.0022 28° Northeast 469 540 31,000  Level Kansas City Center
11:22 37.1283 -96.9119 28° Northeast 470 541 31,000  Level Kansas City Center
11:23 37.2450 -96.8358 27° Northeast 470 541 31,000  Level Kansas City Center
11:24 37.3603 -96.7600 28° Northeast 470 541 31,000  Level Kansas City Center
11:25 37.4750 -96.6850 27° Northeast 469 540 31,000  Level Kansas City Center
11:26 37.5844 -96.5881 35° Northeast 484 557 31,000  Level Kansas City Center
11:27 37.6953 -96.4825 37° Northeast 499 574 31,000 -190 Level Kansas City Center
11:28 37.8281 -96.3581 36° Northeast 498 573 30,600 -726 Descending Kansas City Center
11:29 37.9400 -96.2536 36° Northeast 500 575 29,500 -1,024 Descending Kansas City Center
11:30 38.0528 -96.1458 37° Northeast 507 583 28,500 -1,008 Descending Kansas City Center
11:31 38.1739 -96.0311 37° Northeast 505 581 27,400 -1,065 Descending Kansas City Center
11:32 38.2808 -95.9292 37° Northeast 501 577 26,300 -2,557 Descending Kansas City Center
11:33 38.4017 -95.8119 37° Northeast 491 565 22,200 -3,216 Descending Kansas City Center
11:34 38.5019 -95.7167 37° Northeast 475 547 19,600 -2,516 Descending Kansas City Center
11:35 38.6075 -95.6144 37° Northeast 427 491 17,000 -2,640 Descending Kansas City Center
11:37 38.6908 -95.5333 37° Northeast 398 458 14,100 -2,710 Descending Kansas City Center
11:38 38.7853 -95.4400 38° Northeast 380 437 11,400 -2,000 Descending Kansas City Center
11:39 38.8503 -95.3578 45° Northeast 348 400 10,000 -1,344 Descending Kansas City Center
11:40 38.9117 -95.2706 48° Northeast 294 338 8,600 -1,415 Descending Kansas City Center
11:41 38.9428 -95.1817 66° East 289 333 7,100 -878 Descending Kansas City Center
11:42 38.9769 -95.0761 67° East 290 334 6,800 -528 Descending Kansas City Center
11:43 39.0150 -94.9972 58° Northeast 273 314 6,000 -823 Descending Kansas City Center
11:44 39.0597 -94.9067 58° Northeast 271 312 5,100 -780 Descending Kansas City Center
11:45 39.1086 -94.8447 45° Northeast 260 299 4,400 -1,065 Descending Kansas City Center
11:46 39.1647 -94.7792 42° Northeast 247 284 2,900 -857 Descending Kansas City Center
11:47 39.2100 -94.7325 39° Northeast 206 237 2,600 -581 Descending Kansas City Center
11:48 39.2539 -94.7181 14° North 138 159 1,700 -780 Descending Kansas City Center
11:49 39.2911 -94.7072 13° North 129 148 1,000 -667 Descending Kansas City Center
11:51 39.2833 -94.7000 67° East  Level FlightAware Approximate

Login

Don't have an account? Register now (free) for customized features, flight alerts, and more!